FW5469 Weather Reports


Display with metric or nautical units.
time (UTC)temp
F
wind
direction
speed
MPH
gust
MPH
rain 1hr
in
rain 24hr
in
rain mn
in
humidity
%
barometer
mb
20260510020058 54 0 0.0 1.0 0.00 0.37 0.36 92 1005.7
20260510014616 54 0 0.0 0.0 0.00 0.37 0.36 92 1005.7
20260510013105 54 0 0.0 0.0 0.00 0.37 0.36 92 1005.5
20260510011602 54 0 0.0 0.0 0.00 0.37 0.36 91 1005.4
20260510010055 54 0 0.0 0.0 0.00 0.37 0.36 91 1005.3
20260510004603 55 0 0.0 1.0 0.00 0.40 0.36 90 1005.2
20260510003057 56 0 0.0 2.0 0.00 0.40 0.36 89 1005.2
20260510001558 56 236 1.0 5.0 0.02 0.40 0.36 88 1005.3
20260510000058 57 252 0.0 4.0 0.14 0.40 0.36 88 1005.2
20260509234556 57 217 0.0 4.0 0.31 0.46 0.36 90 1005.1
20260509233057 56 255 0.0 5.0 0.36 0.46 0.36 91 1005.3
20260509231608 56 160 1.0 14.0 0.34 0.44 0.34 90 1005.3
20260509230057 56 289 4.0 14.0 0.22 0.32 0.22 89 1005.5
20260509224558 60 302 8.0 17.0 0.05 0.20 0.05 81 1004.5
20260509223056 69 162 3.0 9.0 0.00 0.15 0.00 55 1003.0
20260509221558 70 202 3.0 12.0 0.00 0.15 0.00 55 1002.4
20260509220058 70 229 3.0 15.0 0.00 0.15 0.00 54 1002.7
20260509214555 71 207 5.0 17.0 0.00 0.17 0.00 54 1002.5
20260509213056 72 172 5.0 18.0 0.00 0.17 0.00 55 1002.3
20260509211601 72 240 4.0 14.0 0.00 0.17 0.00 55 1002.5
20260509210109 72 202 4.0 12.0 0.00 0.17 0.00 55 1002.6
20260509204558 72 179 5.0 17.0 0.00 0.17 0.00 55 1002.9
20260509203057 71 233 6.0 16.0 0.00 0.17 0.00 56 1002.9
20260509201558 71 214 5.0 17.0 0.00 0.17 0.00 57 1003.2
20260509200057 71 169 5.0 16.0 0.00 0.17 0.00 56 1003.4
20260509194558 71 281 3.0 11.0 0.00 0.17 0.00 57 1003.7
20260509193102 71 233 4.0 16.0 0.00 0.17 0.00 57 1003.8
20260509191554 70 257 4.0 12.0 0.00 0.17 0.00 59 1004.2
20260509190056 69 179 4.0 17.0 0.00 0.17 0.00 60 1004.6
20260509184554 68 231 5.0 15.0 0.00 0.17 0.00 61 1004.5
20260509183059 68 134 5.0 11.0 0.00 0.17 0.00 62 1004.7
20260509181555 68 199 6.0 16.0 0.00 0.17 0.00 60 1004.6
20260509180057 69 292 6.0 15.0 0.00 0.17 0.00 60 1004.5
20260509174555 68 231 5.0 13.0 0.00 0.17 0.00 62 1004.5
20260509173118 67 120 4.0 17.0 0.00 0.17 0.00 65 1004.9
20260509171556 67 209 3.0 12.0 0.00 0.17 0.00 64 1004.8
20260509170112 67 176 2.0 9.0 0.00 0.17 0.00 64 1004.8
20260509164602 66 187 2.0 11.0 0.00 0.17 0.00 65 1004.8
20260509163053 65 241 3.0 9.0 0.00 0.17 0.00 68 1004.7
20260509161556 63 182 2.0 5.0 0.00 0.17 0.00 70 1005.1
20260509160059 62 166 1.0 12.0 0.00 0.17 0.00 74 1005.4
20260509154555 62 219 2.0 7.0 0.00 0.17 0.00 75 1005.6
20260509153054 62 255 2.0 11.0 0.00 0.17 0.00 74 1005.7
20260509151616 63 203 2.0 11.0 0.00 0.17 0.00 75 1005.5
20260509150055 61 236 2.0 8.0 0.00 0.17 0.00 78 1005.5
20260509144558 60 262 1.0 6.0 0.00 0.17 0.00 79 1005.5
20260509143105 59 249 1.0 4.0 0.00 0.17 0.00 83 1005.5
20260509141554 58 238 2.0 7.0 0.00 0.17 0.00 84 1005.5
20260509140053 57 206 1.0 7.0 0.00 0.17 0.00 85 1005.7
20260509134559 57 129 2.0 6.0 0.00 0.17 0.00 86 1005.5
20260509133058 57 243 3.0 8.0 0.00 0.17 0.00 86 1005.6
20260509131604 56 229 2.0 7.0 0.00 0.17 0.00 88 1005.5
20260509130126 55 141 1.0 6.0 0.00 0.17 0.00 89 1005.5
20260509124556 55 156 1.0 6.0 0.00 0.17 0.00 89 1005.6
20260509123120 55 233 2.0 7.0 0.00 0.17 0.00 89 1005.7
20260509121554 54 162 2.0 4.0 0.00 0.17 0.00 89 1005.8
20260509120056 54 226 1.0 6.0 0.00 0.17 0.00 90 1005.9
20260509114626 54 236 2.0 5.0 0.00 0.17 0.00 90 1005.8
20260509113124 54 0 1.0 5.0 0.00 0.17 0.00 90 1005.8
20260509111556 53 0 1.0 4.0 0.00 0.17 0.00 90 1005.8
20260509110101 53 203 2.0 8.0 0.00 0.17 0.00 90 1005.7
20260509104555 53 207 2.0 4.0 0.00 0.17 0.00 91 1005.6
20260509103108 53 241 1.0 4.0 0.00 0.17 0.00 91 1005.6
20260509101603 53 210 1.0 5.0 0.00 0.17 0.00 91 1005.6
20260509100054 53 153 0.0 4.0 0.00 0.17 0.00 91 1005.6
20260509094602 53 0 0.0 3.0 0.00 0.17 0.00 91 1005.6
20260509093104 53 254 2.0 9.0 0.00 0.17 0.00 91 1005.7
20260509091557 53 226 1.0 3.0 0.00 0.17 0.00 91 1005.7
20260509084619 52 163 1.0 6.0 0.00 0.17 0.00 91 1006.0
20260509083056 52 240 0.0 4.0 0.00 0.17 0.00 91 1006.2
20260509081559 52 226 1.0 5.0 0.00 0.17 0.00 91 1006.3
20260509080059 52 225 0.0 2.0 0.00 0.17 0.00 91 1006.2
20260509074558 52 0 1.0 3.0 0.00 0.17 0.00 91 1006.2
20260509073055 52 228 1.0 4.0 0.00 0.17 0.00 91 1006.3
20260509071555 52 213 0.0 3.0 0.00 0.17 0.00 91 1006.3
20260509070056 52 0 1.0 4.0 0.00 0.17 0.00 91 1006.5
20260509064600 52 234 1.0 5.0 0.00 0.17 0.00 91 1006.6
20260509063056 52 240 1.0 6.0 0.00 0.17 0.00 91 1006.7
20260509061607 52 226 2.0 7.0 0.00 0.17 0.00 91 1006.9
20260509060058 52 219 1.0 6.0 0.00 0.17 0.00 90 1007.1
20260509054611 52 201 2.0 8.0 0.00 0.17 0.00 90 1007.2
20260509053105 52 157 2.0 6.0 0.00 0.17 0.00 90 1007.4
20260509051608 52 243 1.0 4.0 0.00 0.17 0.00 90 1007.3
20260509050100 52 219 2.0 7.0 0.00 0.17 0.00 90 1007.5
20260509044612 52 0 1.0 4.0 0.00 0.17 0.00 90 1007.7
20260509043057 52 0 0.0 2.0 0.00 0.17 0.00 90 1007.7
20260509041559 52 224 1.0 2.0 0.00 0.17 0.00 90 1007.8
20260509040056 52 226 0.0 2.0 0.00 0.17 0.00 90 1008.1
20260509034558 52 0 0.0 4.0 0.01 0.17 0.17 90 1008.4
20260509033056 52 226 2.0 7.0 0.01 0.17 0.17 89 1008.3
20260509031608 52 228 2.0 8.0 0.01 0.17 0.17 89 1008.5
20260509030104 52 167 3.0 8.0 0.01 0.17 0.17 89 1008.7
20260509024557 52 226 2.0 6.0 0.00 0.16 0.16 90 1008.7
20260509023106 51 243 2.0 4.0 0.00 0.16 0.16 90 1008.7
20260509021557 52 240 1.0 2.0 0.00 0.16 0.16 90 1008.7